Location: eljas
(40.1958°N, 6.8661°W)
Time: 01:52:41
(UTC+02:00)

ISS - All Passes

Search period start: 29 April 2016 00:00
Search period end: 09 May 2016 00:00
Orbit: 402 x 405 km, 51.6° (Epoch: 28 April)

Date Brightness Start Highest point End Pass type
(mag) Time Alt. Az. Time Alt. Az. Time Alt. Az.
29 Apr - 10:33:44 10° SW 10:36:58 67° SE 10:40:13 10° ENE daylight
29 Apr - 12:11:10 10° WNW 12:13:42 20° NNW 12:16:15 10° NNE daylight
29 Apr - 13:50:02 10° NNW 13:51:08 11° N 13:52:15 10° NNE daylight
29 Apr - 15:26:22 10° NNW 15:28:39 17° NNE 15:30:56 10° ENE daylight
29 Apr - 17:02:15 10° NW 17:05:32 82° NE 17:08:48 10° SE daylight
29 Apr - 18:41:15 10° WSW 18:41:31 10° SW 18:41:47 10° SW daylight
30 Apr - 09:41:39 10° SSW 09:44:37 32° SE 09:47:35 10° ENE daylight
30 Apr - 11:18:08 10° W 11:21:04 30° NNW 11:24:01 10° NE daylight
30 Apr - 12:56:56 10° NNW 12:58:21 12° N 12:59:45 10° NNE daylight
30 Apr - 14:34:09 10° NNW 14:35:55 14° NNE 14:37:42 10° NE daylight
30 Apr - 16:09:53 10° NW 16:13:02 43° NNE 16:16:11 10° ESE daylight
30 Apr - 17:46:50 10° W 17:49:18 20° SW 17:51:44 10° S daylight
01 May - 08:50:08 10° S 08:52:19 17° SE 08:54:31 10° E daylight
01 May - 10:25:20 10° WSW 10:28:31 50° NNW 10:31:43 10° NE daylight
01 May - 12:03:41 10° NW 12:05:34 14° NNW 12:07:28 10° NNE daylight
01 May - 13:41:49 10° NNW 13:43:08 12° N 13:44:27 10° NNE daylight
01 May - 15:17:35 10° NW 15:20:27 27° NNE 15:23:18 10° E daylight
01 May - 16:53:54 10° WNW 16:56:59 38° SW 17:00:02 10° SSE daylight
02 May - 09:32:46 10° SW 09:36:01 85° SE 09:39:18 10° NE daylight
02 May - 11:10:27 10° WNW 11:12:51 18° NNW 11:15:14 10° NNE daylight
02 May - 12:49:14 10° NNW 12:50:19 11° N 12:51:24 10° NNE daylight
02 May - 14:25:21 10° NNW 14:27:47 19° NNE 14:30:13 10° ENE daylight
02 May - 16:01:18 10° NW 16:04:35 80° SW 16:07:50 10° SE daylight
03 May - 08:40:31 10° SSW 08:43:36 41° SE 08:46:43 10° ENE daylight
03 May - 10:17:20 10° W 10:20:09 26° NNW 10:22:59 10° NE daylight
03 May - 11:56:12 10° NNW 11:57:29 12° N 11:58:46 10° NNE daylight
03 May - 13:33:06 10° NNW 13:35:03 15° NNE 13:36:59 10° NE daylight
03 May - 15:08:52 10° NW 15:12:05 53° NNE 15:15:17 10° ESE daylight
03 May - 16:46:09 10° W 16:48:15 16° SW 16:50:20 10° S daylight
04 May - 07:48:45 10° S 07:51:15 21° SE 07:53:48 10° E daylight
04 May - 09:24:25 10° WSW 09:27:33 41° NNW 09:30:41 10° NE daylight
04 May - 11:02:57 10° NW 11:04:41 13° NNW 11:06:24 10° NNE daylight
04 May - 12:40:48 10° NNW 12:42:15 12° N 12:43:42 10° NE daylight
04 May - 14:16:32 10° NW 14:19:30 31° NNE 14:22:27 10° E daylight
04 May - 15:53:00 10° WNW 15:55:56 30° SW 15:58:51 10° SSE daylight
05 May - 06:58:09 10° SE 06:59:00 11° SE 06:59:50 10° ESE daylight
05 May - 08:31:45 10° WSW 08:35:00 78° NW 08:38:17 10° NE daylight
05 May - 10:09:40 10° WNW 10:11:54 17° NNW 10:14:08 10° NNE daylight
05 May - 11:48:18 10° NNW 11:49:24 11° N 11:50:31 10° NNE daylight
05 May - 13:24:14 10° NNW 13:26:50 21° NNE 13:29:25 10° ENE daylight
05 May - 15:00:18 10° WNW 15:03:32 63° SW 15:06:45 10° SE daylight
06 May - 07:39:21 10° SW 07:42:32 52° SE 07:45:44 10° ENE daylight
06 May - 09:16:29 10° W 09:19:10 23° NNW 09:21:52 10° NNE daylight
06 May - 10:55:23 10° NNW 10:56:32 11° N 10:57:43 10° NNE daylight
06 May - 12:31:58 10° NNW 12:34:05 16° NNE 12:36:11 10° ENE daylight
06 May - 14:07:47 10° NW 14:11:02 65° NE 14:14:17 10° ESE daylight
06 May - 15:45:33 10° W 15:47:07 13° SW 15:48:40 10° SSW daylight
07 May - 06:47:22 10° SSW 06:50:08 26° SE 06:52:55 10° ENE visible
07 May - 08:23:28 10° W 08:26:30 35° NNW 08:29:33 10° NE daylight
07 May - 10:02:08 10° NW 10:03:42 13° N 10:05:17 10° NNE daylight
07 May - 11:39:40 10° NNW 11:41:16 13° N 11:42:52 10° NE daylight
07 May - 13:15:23 10° NW 13:18:27 36° NNE 13:21:31 10° E daylight
07 May - 14:52:04 10° WNW 14:54:48 25° SW 14:57:31 10° S daylight
08 May - 05:56:07 10° SSE 05:57:49 13° SE 05:59:30 10° E visible
08 May - 07:30:40 10° WSW 07:33:54 63° NW 07:37:09 10° NE daylight
08 May - 09:08:48 10° NW 09:10:53 16° NNW 09:12:57 10° NNE daylight
08 May - 10:47:13 10° NNW 10:48:25 11° N 10:49:36 10° NNE daylight
08 May - 12:23:04 10° NNW 12:25:47 24° NNE 12:28:30 10° E daylight
08 May - 13:59:14 10° WNW 14:02:24 49° SW 14:05:34 10° SE daylight
